Regional Weather Roundup
Issued by NWS Sioux Falls, SD

Home | Current Version | Previous Version | Graphics & Text | Print | Product List | Glossary Off
Versions: 1 2 3 4 5 6 7 8 9 10 11 12 13 14 15 16 17 18 19 20 21 22 23 24 25 26 27 28 29 30 31 32 33 34 35 36 37 38 39 40 41 42 43 44 45 46 47 48 49 50

000
ASUS43 KFSD 222202
RWRFSD

WEATHER ROUNDUP FOR SE SOUTH DAKOTA/SW MINNESOTA/NW IOWA
NATIONAL WEATHER SERVICE SIOUX FALLS SD
500 PM CDT FRI AUG 22 2014

NOTE: "FAIR" INDICATES FEW OR NO CLOUDS BELOW 12,000 FEET WITH NO
SIGNIFICANT WEATHER AND OR OBSTRUCTIONS TO VISIBILITY.


SDZ038>040-050-052>070-222300-
SOUTHEAST SOUTH DAKOTA

CITY           SKY/WX    TMP DP  RH WIND       PRES   REMARKS
CHAMBERLAIN    CLOUDY    82  66  58 SE6       29.98R
HURON          CLOUDY    82  68  62 N16       29.96S
MADISON        MOCLDY    81  72  74 SE5       30.00R
MITCHELL       CLOUDY    83  70  64 CALM      29.96S
SIOUX FALLS    PTSUNNY   85  68  56 E6        29.98R
WINNER         FAIR      85  64  49 S7        29.98R
YANKTON        PTSUNNY   82  72  69 NE5       29.96R
$$

MNZ071-072-080-081-089-090-097-098-222300-
SOUTHWEST MINNESOTA

CITY           SKY/WX    TMP DP  RH WIND       PRES   REMARKS
FAIRMONT       MOSUNNY   72  64  78 CALM      29.97S
JACKSON        MOSUNNY   82  68  61 NE7       29.99R
LUVERNE        MOSUNNY   84  68  58 E5        29.99R
MARSHALL       CLOUDY    82  66  57 NE8       29.97S
MONTEVIDEO     SUNNY     88  72  58 CALM      29.98S
PIPESTONE      MOSUNNY   81  66  61 CALM      30.01R
REDWOOD FALLS  MOSUNNY   86  69  56 NE7       29.96S
TRACY          MOSUNNY   83  69  61 NE3       29.99S
WINDOM         MOSUNNY   81  70  69 NE6       29.99R
WORTHINGTON      N/A     81  68  65 E3        30.00S
$$

IAZ001>003-012>014-020>022-031-032-NEZ013-014-SDZ071-222300-
NORTHWEST IOWA

CITY           SKY/WX    TMP DP  RH WIND       PRES   REMARKS
CHEROKEE       PTSUNNY   83  76  80 NE8       29.95S
DENISON        CLOUDY    84  79  84 NE10      29.90F HX  96
ESTHERVILLE    SUNNY     83  72  69 E5        29.96F
LE MARS        MOSUNNY   84  75  74 NE8       29.95S
ORANGE CITY    MOSUNNY   84  70  61 E6        29.97S
SHELDON        MOSUNNY   81  73  78 VRB6      29.97S
SIOUX CITY     MOSUNNY   89  75  63 NE10      29.92S HX  99
SPENCER        PTSUNNY   83  72  69 VRB5      29.98R
STORM LAKE     PTSUNNY   82  79  89 NE10G16   29.96S
$$

ABBREVIATIONS USED IN REMARKS
   TC - TEMPERATURE IN CELSIUS
  WCI - WIND CHILL INDEX
   HX - HEAT INDEX
  VSB - VISIBILITY




USA.gov is the U.S. government's official web portal to all federal, state and local government web resources and services.